AO-07 1 07530U 74089B 15054.84975851 -.00000016 00000-0 17507-3 0 9996 2 07530 101.5080 033.7016 0012060 162.3479 312.2496 12.53612028843050 FO-29 1 24278U 96046B 15056.50203388 -.00000009 00000-0 27677-4 0 9997 2 24278 098.5280 040.4670 0350303 000.6073 107.8814 13.53045226914923 SO-33 1 25509U 98061B 15056.60687314 .00000836 00000-0 15098-3 0 9990 2 25509 031.4329 164.1576 0348299 175.1802 272.4504 14.29863628853441 RS-22 1 27939U 03042A 15057.77604792 .00001074 00000-0 20480-3 0 9998 2 27939 097.8313 224.6755 0013682 024.4184 335.7672 14.65823687610018 HO-68 1 36122U 09072B 15057.73085228 -.00000060 00000-0 -43517-4 0 9997 2 36122 100.2111 106.4069 0007441 017.9983 342.1393 13.16324191249923 AO-73 1 39444U 13066AE 15057.14818398 .00002237 00000-0 29512-3 0 9996 2 39444 097.7437 123.9464 0061704 136.9529 223.6534 14.79702289 66999 EO-79 1 40025U 14033R 15057.71810862 .00002467 00000-0 28409-3 0 9998 2 40025 097.9634 317.7994 0012383 180.5738 179.5465 14.86605391 37381 UO-11 1 14781U 84021B 15056.72023299 .00000745 00000-0 99887-4 0 9998 2 14781 097.8161 116.4786 0009911 079.5542 280.6787 14.82183648665516 AO-16 1 20439U 90005D 15057.16324234 .00000165 00000-0 76749-4 0 9994 2 20439 098.5328 355.0429 0011946 126.0566 346.5157 14.32495036310844 LO-19 1 20442U 90005G 15056.39385018 .00000152 00000-0 71705-4 0 9992 2 20442 098.5036 354.1796 0012966 117.6305 242.6197 14.32690200310931 AO-27 1 22825U 93061C 15057.44850381 .00000124 00000-0 65600-4 0 9997 2 22825 098.6966 007.6083 0007269 272.2830 232.0306 14.29839712117110 IO-26 1 22826U 93061D 15057.43145474 .00000133 00000-0 68705-4 0 9996 2 22826 098.6908 007.7732 0007843 263.3804 096.6485 14.30152296117253 GO-32 1 25397U 98043D 15057.54034329 .00000067 00000-0 48198-4 0 9995 2 25397 098.5071 011.5313 0000224 355.3023 055.0713 14.23520056864053 NO-44 1 26931U 01043C 15056.54872254 .00000136 00000-0 84450-4 0 9998 2 26931 067.0509 105.0530 0006717 267.4119 092.6213 14.30262965699831 SO-50 1 27607U 02058C 15057.63083108 .00000889 00000-0 12718-3 0 9991 2 27607 064.5561 176.3154 0074836 310.1629 049.3424 14.74477342654989 CO-55 1 27844U 03031E 15056.59170051 .00000322 00000-0 16637-3 0 9990 2 27844 098.6976 066.7080 0008658 260.9265 216.3390 14.21721409604584 CO-57 1 27848U 03031J 15057.57013300 .00000270 00000-0 14391-3 0 9993 2 27848 098.7071 067.5217 0008547 265.6794 214.4674 14.21380006604636 AO-51 1 28375U 04025K 15057.39933840 .00000277 00000-0 95135-4 0 9996 2 28375 098.2826 001.0939 0081646 304.6334 054.7176 14.41593938560527 CP3 1 31129U 07012N 15057.13452428 .00001302 00000-0 29152-3 0 9991 2 31129 097.9680 027.8189 0095694 300.2151 188.8801 14.55523233416960 CO-65 1 32785U 08021C 15056.17884297 .00001675 00000-0 19526-3 0 9994 2 32785 097.6639 103.8127 0014860 079.4121 317.4928 14.86422501369591 PRISM 1 33493U 09002B 15057.76335292 .00005252 00000-0 52054-3 0 9991 2 33493 098.2526 249.8337 0016376 334.9515 025.0925 14.92179393330103 SOHLA-1 1 33496U 09002E 15057.59236262 .00000589 00000-0 10382-3 0 9998 2 33496 098.1952 184.6568 0007269 147.6872 275.4355 14.71212518326912 TISAT-1 1 36799U 10035E 15057.54918649 .00002895 00000-0 32368-3 0 9996 2 36799 098.0118 156.7379 0012937 205.4404 281.1499 14.87679737250507 STUDSAT 1 36801U 10035G 15057.76623666 .00022583 00000-0 15194-2 0 9999 2 36801 098.0516 171.6067 0007386 156.0625 204.1456 15.06742951251310 ALMASAT-1 1 38078U 12006B 15057.71573557 .00027638 00000-0 50816-3 0 9992 2 38078 069.4597 157.2188 0514862 049.3532 315.1720 14.69130243158750 XATCOBEO 1 38082U 12006F 14243.34478676 .13583328 43697-5 37939-3 0 9990 2 38082 069.3815 097.0364 0033293 225.1799 135.4582 16.41261006136239 CUBEBUG-1 1 39153U 13018D 15057.20248367 .00001602 00000-0 22468-3 0 9998 2 39153 098.0218 141.8999 0016472 249.2201 110.7245 14.78800867 99076 ESTCUBE-1 1 39161U 13021C 15057.80348139 .00001450 00000-0 24520-3 0 9997 2 39161 098.0767 141.6994 0008733 310.5422 049.5019 14.70839684 97016 DUCHIFAT-1 1 40021U 14033M 15057.66600028 .00003351 00000-0 37773-3 0 9996 2 40021 097.9625 317.9209 0013724 182.2011 177.9209 14.87230162 37379 NANOSATCBR1 1 40024U 14033Q 15057.69595315 .00003111 00000-0 35392-3 0 9993 2 40024 097.9630 317.8298 0012200 179.7765 180.3479 14.86919193 37374 DTUSAT-2 1 40030U 14033W 15057.71492768 .00002542 00000-0 29527-3 0 9991 2 40030 097.9614 317.6166 0012496 173.1083 187.0306 14.86215498 37373 ANTELSAT 1 40034U 14033AA 15057.68915232 .00001771 00000-0 28000-3 0 9995 2 40034 097.9585 312.1148 0061454 112.7721 247.9998 14.72286099 37036 MET-2/21 1 22782U 93055A 15056.30618519 .00000043 00000-0 26075-4 0 9994 2 22782 082.5526 332.4554 0020974 274.9920 217.5318 13.83763680 85120 OKEAN-4 1 23317U 94066A 15057.50645295 .00001453 00000-0 16172-3 0 9998 2 23317 082.5402 189.3572 0019301 339.7700 126.6004 14.86360355100873 NOAA-14 1 23455U 94089A 15057.54200237 -.00000016 00000-0 14528-4 0 9992 2 23455 098.7576 141.2480 0009886 041.9036 082.8180 14.14024907 39895 NOAA-15 1 25338U 98030A 15057.56527396 .00000176 00000-0 93039-4 0 9994 2 25338 098.7692 056.1532 0011678 127.2911 339.8683 14.25571043873080 RESURS 1 25394U 98043A 15056.53769096 .00000033 00000-0 32158-4 0 9998 2 25394 098.4516 015.7320 0000837 180.9884 303.5110 14.24443658864385 FENGYUN1 1 25730U 99025A 15056.53629080 .00000874 00000-0 49126-3 0 9996 2 25730 098.9347 021.5143 0020596 106.3610 010.5046 14.13016579813289 OKEAN-0 1 25860U 99039A 15057.49174788 .00000812 00000-0 12599-3 0 9997 2 25860 098.0808 025.4609 0001126 084.5028 061.1600 14.75836096839653 NOAA-16 1 26536U 00055A 15057.28301624 .00000090 00000-0 72108-4 0 9997 2 26536 098.9550 123.3043 0010825 181.1341 178.9808 14.13077442743997 NOAA-17 1 27453U 02032A 15057.54980431 .00000080 00000-0 51649-4 0 9997 2 27453 098.3322 049.0746 0012618 143.8096 216.3941 14.24855960658907 NOAA-18 1 28654U 05018A 15057.55510662 .00000080 00000-0 69229-4 0 9997 2 28654 099.1771 047.5446 0013339 270.2977 196.4831 14.12155503503461 NOAA-19 1 33591U 09005A 15057.50160947 .00000249 00000-0 16053-3 0 9998 2 33591 098.9781 007.1924 0015006 120.4345 014.4873 14.11879924311872 HUBBLE 1 20580U 90037B 15057.66983247 .00002340 00000-0 14137-3 0 9995 2 20580 028.4699 162.6306 0003279 123.5719 018.4513 15.06888619163125 ISS 1 25544U 98067A 15057.84246203 .00127627 00000-0 18511-2 0 9990 2 25544 051.6473 275.1525 0007649 055.1569 037.9350 15.54878014930868 CO-58 1 28895U 05043F 15057.02812911 .00000971 00000-0 19986-3 0 9999 2 28895 097.8226 250.6120 0015927 289.2909 070.6571 14.62529482497343 FALCON 1 30776U 07006E 15056.81684715 .00010737 00000-0 46387-3 0 9992 2 30776 035.4282 338.0031 0002880 330.1556 069.3581 15.21767301439313 MAST 1 31126U 07012K 15057.50758948 .00000791 00000-0 18116-3 0 9994 2 31126 097.9481 030.6647 0089842 281.1337 229.0097 14.55852674417384 CAPE1 1 31130U 07012P 15057.42306703 .00001226 00000-0 27677-3 0 9994 2 31130 097.9697 027.5972 0096359 301.0369 058.1395 14.55219632416777 COMPASS 1 32787U 08021E 15057.09141922 .00003356 00000-0 35381-3 0 9994 2 32787 097.6672 108.1490 0014604 065.9114 294.3630 14.89903825369969 AAUSAT2 1 32788U 08021F 15057.09273922 .00004068 00000-0 41777-3 0 9998 2 32788 097.6681 109.4822 0014014 063.8659 296.3999 14.90849336370048 DO-64 1 32789U 08021G 15057.17481301 .00007946 00000-0 67893-3 0 9995 2 32789 097.6864 118.8921 0011084 044.3343 017.2439 14.97873600370456 CO-66 1 32791U 08021J 15057.10479594 .00002236 00000-0 24807-3 0 9997 2 32791 097.6662 106.3281 0015281 070.5525 289.7342 14.88140169369793 RS-30 1 32953U 08025A 15057.56758822 .00000010 00000-0 -13620-7 0 9999 2 32953 082.5015 043.0273 0018277 324.9107 035.0763 12.43057077306868 METEOR-M 1 35865U 09049A 15057.73901284 .00000114 00000-0 70766-4 0 9997 2 35865 098.5152 101.9628 0003236 080.1745 279.9798 14.21994516282516 RS-38 1 35869U 09049E 15057.72295382 .00000082 00000-0 55779-4 0 9996 2 35869 098.5065 101.6302 0005449 077.4710 282.7078 14.22273907282550 JUGNU 1 37839U 11058B 15057.52181601 .00000457 00000-0 10203-3 0 9992 2 37839 019.9612 153.3610 0018831 267.6183 196.0730 14.12426515174552 SRMSAT 1 37841U 11058D 15057.59137544 .00000419 00000-0 85715-4 0 9998 2 37841 019.9716 177.3913 0011593 197.8516 266.7021 14.10445825174319 RAX-2 1 37853U 11061D 15057.46575297 .00005228 00000-0 33320-3 0 9999 2 37853 101.7097 214.2665 0201652 038.8247 010.7533 14.94301181180568 AUBIESAT 1 37854U 11061E 15057.38964769 .00006833 00000-0 41567-3 0 9992 2 37854 101.7155 217.0623 0197514 034.6274 021.1316 14.96199974180645 HRBE 1 37855U 11061F 15057.37498174 .00005616 00000-0 34957-3 0 9997 2 37855 101.7152 215.9270 0200619 036.8575 324.6230 14.95173463180580 RS-39 1 38051U 11062C 14288.65876392 .70201582 12497-4 27925-2 0 9995 2 38051 051.5964 324.1908 0006422 269.6897 186.8903 16.43533377153081 E-STAR 1 38079U 12006C 15016.13455217 .17990388 48979-5 52837-3 0 9992 2 38079 069.3967 125.0648 0013168 047.0341 316.5109 16.44007688156194 GOLIAT 1 38085U 12006J 15047.13271005 .15174231 50628-5 38163-3 0 9993 2 38085 069.4022 049.8202 0017770 344.8867 016.3100 16.44194733160691 HORYU-2 1 38340U 12025D 15057.13305872 .00002019 00000-0 31640-3 0 9994 2 38340 098.3000 024.3242 0013594 090.3405 269.9360 14.73797861149170 RS-40 1 38735U 12041C 15057.64144062 .00000040 00000-0 21992-3 0 9999 2 38735 082.4783 128.9151 0017653 064.1362 296.1540 12.42567447117188 PROITERES 1 38756U 12047B 15057.81345492 .00001053 00000-0 16225-3 0 9995 2 38756 098.2181 155.2759 0011333 293.3627 066.6385 14.75580051132722 BEESAT-3 1 39134U 13015E 15056.37986437 .00010534 00000-0 64579-3 0 9991 2 39134 064.8739 054.7067 0034596 267.8834 091.8327 15.10058958101805 BEESAT-2 1 39136U 13015G 15057.18774611 .00007683 00000-0 49084-3 0 9997 2 39136 064.8744 053.7156 0035131 267.4455 092.2645 15.08790024101905 LO-75 1 39382U 13064C 14295.69194059 .07301741 00000-0 36367-2 0 9993 2 39382 040.4713 030.2705 0002289 341.7175 018.4586 16.19795749470823 ZACUBE-1 1 39417U 13066B 15057.14760134 .00001875 00000-0 25097-3 0 9991 2 39417 097.7434 123.7911 0062197 137.4593 223.1462 14.79266302 68218 TRITON-1 1 39427U 13066M 15057.40258327 .00001368 00000-0 23199-3 0 9995 2 39427 097.7297 114.6127 0117403 160.2175 200.3641 14.66297221 67636 DELFIN3XT 1 39428U 13066N 15057.16734629 .00002371 00000-0 40360-3 0 9997 2 39428 097.7301 112.9185 0126417 165.1078 195.3905 14.64792036 67480 GOMX-1 1 39430U 13066Q 15057.71256816 .00001592 00000-0 30483-3 0 9997 2 39430 097.7241 108.7395 0154512 177.2149 182.9943 14.57709620 67283 MO-76 1 39436U 13066W 15057.15207073 .00023326 00000-0 18273-2 0 9993 2 39436 097.7532 133.0850 0023412 118.6150 241.7433 15.00780073 68801 LO-74 1 39440U 13066AA 15057.71336544 .00001636 00000-0 24209-3 0 9993 2 39440 097.7388 120.5991 0083708 144.0541 216.6339 14.74119838 68051 PUCPSAT-1 1 39442U 13066AC 15056.74700314 .00003274 00000-0 35980-3 0 9995 2 39442 097.7506 129.3164 0034854 129.8821 230.5470 14.87873347 67296 SHINAISAT 1 39572U 14009A 14328.13084988 .28848087 76253-5 66603-3 0 9996 2 39572 064.9728 197.0096 0013534 259.7861 100.1802 16.45181032 42403 TEIKYOSAT 1 39576U 14009E 14297.85867254 .09345816 76764-5 25176-3 0 9997 2 39576 064.9818 300.5833 0008491 317.3597 044.3862 16.45008906 37698 CO-77 1 39577U 14009F 14244.78324653 .10543803 76292-5 32273-3 0 9993 2 39577 064.9920 123.7668 0014904 269.7208 091.1897 16.43552757 29380 SPROUT 1 39770U 14029E 15057.84703357 .00002104 00000-0 26224-3 0 9993 2 39770 097.8690 156.2261 0009679 194.3071 165.7857 14.83469802 41274 POPSAT-HIP1 1 40028U 14033U 15057.74556441 .00002346 00000-0 27136-3 0 9996 2 40028 097.9664 317.8789 0014266 178.7353 181.3929 14.86448250 37378 EO-80 1 40032U 14033Y 15057.71955770 .00002273 00000-0 26495-3 0 9992 2 40032 097.9620 317.6346 0012215 173.7194 186.4177 14.86177335 37376 VELOX-1 1 40057U 14034E 15057.73790417 .00002485 00000-0 37466-3 0 9992 2 40057 098.2246 134.0332 0010758 227.7854 132.2441 14.75265813 35592 DAURIA DX 1 1 40071U 14037C 15057.81118434 .00001157 00000-0 15998-3 0 9994 2 40071 098.3694 124.6408 0007807 228.3933 131.6607 14.80121870 34463 UKUBE-1 1 40074U 14037F 15057.76879655 .00002447 00000-0 31848-3 0 9995 2 40074 098.3705 125.0552 0003950 232.4176 127.6674 14.81623811 34488 CHASQUI-1 1 40117U 98067ET 15014.73322295 .07508583 12315-4 10026-2 0 9990 2 40117 051.6189 112.4445 0004239 337.2783 022.7551 16.34635278 23368 HODOYOSHI-1 1 40299U 14070B 15057.80081058 .00004607 00000-0 22777-3 0 9999 2 40299 097.4626 140.7452 0013893 153.1912 323.9552 15.18247319 17063 CHUBUSAT-1 1 40300U 14070C 15057.82012147 .00006415 00000-0 33179-3 0 9994 2 40300 097.4599 140.3847 0023413 155.2232 321.4137 15.16357205 17040 QSAT-EOS 1 40301U 14070D 15057.78308873 .00010807 00000-0 57796-3 0 9995 2 40301 097.4568 139.9362 0034297 156.6255 319.6311 15.14727462 17019 TSUBAME 1 40302U 14070E 15057.91084131 .00006583 00000-0 38169-3 0 9998 2 40302 097.4547 139.5821 0044777 157.3402 322.3997 15.11644583 17008 FIREBIRD FU3 1 40377U 15003B 15057.57683316 .00012174 00000-0 63808-3 0 9990 2 40377 099.1252 070.7602 0164466 254.9754 103.3208 15.04974679 3907 FIREBIRD FU4 1 40378U 15003C 15057.57633172 .00012058 00000-0 63107-3 0 9999 2 40378 099.1254 070.7610 0164661 254.9393 103.3553 15.05001664 3904 GRIFEX 1 40379U 15003D 15057.57905491 .00010096 00000-0 53346-3 0 9990 2 40379 099.1265 070.7602 0164410 255.8794 102.4106 15.04784479 3900 /EX
